Tenerife, El Salvador

11:43 PM WEST en Agosto 22, 2017 (GMT +0100)
Tenerife

Tiempo Historia de GCXO - Agosto, 2017

Change the Weather History Date:

Domingo, Agosto 13, 2017

  Actual Average Record
Temperature  
Temperatura media 72 ° F -  
Temperatura máxima 79 ° F 74 ° F 96 ° F (2013)
Temperatura mínima 64 ° F 61 ° F 59 ° F (2002)
Cooling Degree Days 6    
Growing Degree Days 22 (Base 50)    
Moisture  
Punto de rocío 50 ° F    
Average Humidity 50    
Maximum Humidity 100    
Minimum Humidity 14    
Precipitación  
Precipitación 0.00 pul - - ()
Presión al nivel del mar  
Presión al nivel del mar 30.09 pul    
Viento  
Velocidad del viento 12 mph ()    
Velocidad máxima del viento 18 mph    
Max Gust Speed -    
Visibilidad 8.5 Millas    
Eventos      
Averages and records for this station are not official NWS values.
T = Trace of Precipitation, MM = Missing Value Source: Averaged Metar Reports

Daily Weather History Graph

Daily Weather History Graph

Search for Another Location

Airport or City:

Trip Planner

Search our weather history database for the weather conditions in past years. The results will help you decide how hot, cold, wet, or windy it might be!

Date:

Astronomía

Aug. 13, 2017 Salida Puesta
Hora real 7:33 AM WEST 8:46 PM WEST
Crepúsculo civil 7:08 AM WEST 9:10 PM WEST
Crepúsculo náutico 6:39 AM WEST 9:40 PM WEST
Crepúsculo astronómico 6:08 AM WEST 10:10 PM WEST
Luna 12:02 AM WEST (8/13) 12:52 PM WEST (8/13)
Horas de luz 14h 01m
Horas de luz
13h 12m
Gibosa menguante, 68% of the Moon is Illuminated
Ago 13
Gibosa menguante
Ago 15
Cuarto menguante
Ago 21
Nueva
Ago 29
Cuarto creciente
Sep 6
Luna llena

Hourly Weather History & Observations

Hora (WEST) Temp. Punto de rocío Humedad Presión Visibilidad Wind Dir Velocidad del viento Velocidad de ráfagas Precip Eventos Condiciones
12:00 AM 69.8 ° F 55.4 ° F 60% 30.15 pul 6.2 mi Oeste 15.0 mph - N/A   Desconocido
12:30 AM 69.8 ° F 46.4 ° F 43% 30.15 pul 6.2 mi Oeste 15.0 mph - N/A   Desconocido
1:00 AM 70 ° F 40 ° F 22% 30.09 pul 19 mi Oeste 13.8 mph - -  
1:00 AM 69.8 ° F 41.0 ° F 35% 30.15 pul 6.2 mi Oeste 12.7 mph - N/A   Desconocido
1:30 AM 68.0 ° F 39.2 ° F 35% 30.15 pul 6.2 mi Oeste 12.7 mph - N/A   Desconocido
2:00 AM 69.8 ° F 35.6 ° F 28% 30.12 pul 6.2 mi Oeste 11.5 mph - N/A   Desconocido
2:30 AM 68.0 ° F 35.6 ° F 30% 30.12 pul 6.2 mi Oeste 11.5 mph - N/A   Desconocido
3:00 AM 68.0 ° F 39.2 ° F 35% 30.12 pul 6.2 mi Oeste 9.2 mph - N/A   Desconocido
3:30 AM 68.0 ° F 41.0 ° F 37% 30.12 pul 6.2 mi Oeste 9.2 mph - N/A   Desconocido
4:00 AM 68 ° F 39 ° F 23% 30.05 pul 19 mi Oeste 11.5 mph - -  
4:00 AM 68.0 ° F 39.2 ° F 35% 30.09 pul 6.2 mi Oeste 10.4 mph - N/A   Desconocido
4:30 AM 66.2 ° F 37.4 ° F 35% 30.09 pul 6.2 mi Oeste 11.5 mph - N/A   Desconocido
5:00 AM 66.2 ° F 39.2 ° F 37% 30.09 pul 6.2 mi Oeste 9.2 mph - N/A   Desconocido
5:30 AM 66.2 ° F 37.4 ° F 35% 30.09 pul 6.2 mi Oeste 9.2 mph - N/A   Desconocido
6:00 AM 66.2 ° F 39.2 ° F 37% 30.09 pul - Oeste 9.2 mph - N/A   Despejado
6:30 AM 66.2 ° F 37.4 ° F 35% 30.09 pul - Oeste 10.4 mph - N/A   Despejado
7:00 AM 66 ° F 35 ° F 21% 30.05 pul 19 mi Oeste 11.5 mph - -   Despejado
7:00 AM 66.2 ° F 35.6 ° F 32% 30.09 pul - Oeste 11.5 mph - N/A   Despejado
7:30 AM 66.2 ° F 37.4 ° F 35% 30.09 pul - Oeste 11.5 mph - N/A   Despejado
8:00 AM 64.4 ° F 35.6 ° F 34% 30.09 pul - Oeste 12.7 mph - N/A   Despejado
9:30 AM 75.2 ° F 23.0 ° F 14% 30.09 pul - ONO 16.1 mph - N/A   Despejado
10:00 AM 74 ° F 37 ° F 16% 30.03 pul 19 mi ONO 17.3 mph - -   Nubes dispersas
10:00 AM 73.4 ° F 32.0 ° F 22% 30.12 pul - ONO 17.3 mph - N/A   Despejado
10:30 AM 75.2 ° F 42.8 ° F 31% 30.09 pul - ONO 17.3 mph - N/A   Despejado
11:00 AM 75.2 ° F 44.6 ° F 34% 30.12 pul - ONO 15.0 mph - N/A   Despejado
11:30 AM 78.8 ° F 48.2 ° F 34% 30.12 pul - NO 12.7 mph - N/A   Despejado
12:00 PM 77.0 ° F 46.4 ° F 34% 30.12 pul - NO 13.8 mph - N/A   Despejado
12:30 PM 77.0 ° F 50.0 ° F 39% 30.12 pul - NO 13.8 mph - N/A   Despejado
1:00 PM 78 ° F 51 ° F 28% 30.01 pul 19 mi NO 13.8 mph - -   Despejado
1:00 PM 75.2 ° F 51.8 ° F 44% 30.12 pul - NO 12.7 mph - N/A   Despejado
1:30 PM 78.8 ° F 55.4 ° F 44% 30.09 pul - NO 16.1 mph - N/A   Despejado
2:00 PM 78.8 ° F 55.4 ° F 44% 30.09 pul - NO 15.0 mph - N/A   Despejado
2:30 PM 75.2 ° F 55.4 ° F 50% 30.09 pul - NO 15.0 mph - N/A   Despejado
3:00 PM 75.2 ° F 57.2 ° F 53% 30.09 pul - ONO 17.3 mph - N/A   Despejado
3:30 PM 75.2 ° F 53.6 ° F 47% 30.09 pul - ONO 18.4 mph - N/A   Despejado
4:00 PM 76 ° F 60 ° F 47% 29.99 pul 19 mi ONO 16.1 mph - -   Nubes dispersas
4:00 PM 77.0 ° F 60.8 ° F 57% 30.09 pul 6.2 mi NO 16.1 mph - N/A   Parcialmente nublado
4:30 PM 73.4 ° F 60.8 ° F 65% 30.09 pul 6.2 mi ONO 16.1 mph - N/A   Parcialmente nublado
5:00 PM 75.2 ° F 64.4 ° F 69% 30.09 pul 6.2 mi ONO 15.0 mph - N/A   Parcialmente nublado
5:30 PM 71.6 ° F 62.6 ° F 73% 30.06 pul 6.2 mi NO 15.0 mph - N/A   Parcialmente nublado
6:00 PM 73.4 ° F 64.4 ° F 73% 30.06 pul 6.2 mi ONO 15.0 mph - N/A   Parcialmente nublado
6:30 PM 71.6 ° F 64.4 ° F 78% 30.06 pul 6.2 mi ONO 15.0 mph - N/A   Parcialmente nublado
7:00 PM 72 ° F 64 ° F 68% 29.98 pul 16 mi ONO 16.1 mph - -   Nubes dispersas
7:00 PM 73.4 ° F 64.4 ° F 73% 30.06 pul 6.2 mi ONO 16.1 mph - N/A   Parcialmente nublado
7:30 PM 69.8 ° F 62.6 ° F 78% 30.06 pul 6.2 mi ONO 16.1 mph - N/A   Parcialmente nublado
8:00 PM 68.0 ° F 62.6 ° F 83% 30.06 pul 6.2 mi ONO 13.8 mph - N/A   Parcialmente nublado
8:30 PM 66.2 ° F 62.6 ° F 88% 30.06 pul 6.2 mi ONO 16.1 mph - N/A   Parcialmente nublado
9:00 PM 66.2 ° F 62.6 ° F 88% 30.06 pul 6.2 mi ONO 16.1 mph - N/A   Parcialmente nublado
9:30 PM 64.4 ° F 62.6 ° F 94% 30.06 pul 6.2 mi Oeste 15.0 mph - N/A   Parcialmente nublado
10:30 PM 64.4 ° F 62.6 ° F 94% 30.09 pul 6.2 mi Oeste 10.4 mph - N/A   Nubes dispersas
11:00 PM 64.4 ° F 64.4 ° F 100% 30.09 pul 4.3 mi Oeste 9.2 mph - N/A   Nubes dispersas
11:13 PM 64.4 ° F 64.4 ° F 100% 30.09 pul 3.7 mi Oeste 11.5 mph - N/A   Muy nublado
11:30 PM 64.4 ° F 64.4 ° F 100% 30.09 pul 4.3 mi Oeste 12.7 mph - N/A   Nubes dispersas